Home > Weather > Majuro > Past weeks

Flag for Marshall Islands Weather for the Past 2 Weeks in Majuro, Marshall Islands

Now
85 °F

Broken clouds.


Feels Like: 94 °F
Forecast: 82 / 85 °F
Wind: 13 mph from Northeast

Location: Majuro Atoll

Current Time: May 2, 2016 at 7:01:24 PM

Latest Report: May 2, 2016 at 5:52 PM


Visibility: 15 mi

Pressure: 29.80 "Hg

Humidity: 77%

Dew Point: 76 °F

Location of MajuroLocation

Historic Weather in Majuro — Graph

°F

Majuro Temperature Yesterday

Maximum temperature yesterday: 87 °F (at 11:54 AM)
Minimum temperature yesterday: 82 °F (at 4:50 AM)
Average temperature yesterday: 84 °F

High & Low Weather Summary for the Past Weeks

 TemperatureHumidityPressure
High88 °F (Apr 27, 1:54 PM)92% (Apr 27, 12:50 AM)29.90 "Hg (Apr 27, 12:50 AM)
Low79 °F (Apr 29, 6:51 AM)64% (Apr 22, 1:52 PM)29.75 "Hg (Apr 23, 4:55 PM)
Average84 °F79%29.84 "Hg
* Reported Apr 17 4:51 PM — May 2 4:55 PM, Majuro, Weather by CustomWeather, © 2016

Note: Actual official high and low records may vary slightly from our data, if they occured in-between our weather recording intervals... More about our weather records

Advertising

Majuro Weather History for the Previous 24 Hours

Scroll right to see more
 ConditionsComfort  
Time TempWeatherWind HumidityBarometerVisibility
4:55 PM
Mon, May 2
85 °FBroken clouds.10 mph78%29.78 "Hg15 mi
3:52 PM86 °FPartly sunny.15 mph75%29.77 "Hg15 mi
2:52 PM87 °FBroken clouds.13 mph75%29.78 "Hg15 mi
1:50 PM87 °FScattered clouds.14 mph73%29.78 "Hg15 mi
12:52 PM87 °FScattered clouds.15 mph71%29.80 "Hg15 mi
11:52 AM87 °FPartly sunny.14 mph72%29.83 "Hg15 mi
10:57 AM87 °FPartly sunny.15 mph73%29.85 "Hg15 mi
9:52 AM86 °FPartly sunny.15 mph75%29.85 "Hg15 mi
8:53 AM85 °FMore clouds than sun.15 mph77%29.85 "Hg15 mi
7:54 AM84 °FBroken clouds.14 mph77%29.84 "Hg15 mi
6:56 AM82 °FPartly cloudy.13 mph79%29.82 "Hg15 mi
5:53 AM82 °FMostly cloudy.12 mph80%29.80 "Hg15 mi
4:53 AM82 °FOvercast.9 mph80%29.79 "Hg15 mi
3:51 AM82 °FOvercast.10 mph80%29.78 "Hg15 mi
2:52 AM82 °FMostly cloudy.10 mph81%29.78 "Hg15 mi
1:53 AM82 °FOvercast.13 mph81%29.79 "Hg15 mi
12:52 AM82 °FOvercast.13 mph82%29.81 "Hg15 mi
11:51 PM
Sun, May 1
82 °FOvercast.9 mph81%29.84 "Hg15 mi
10:51 PM82 °FMostly cloudy.10 mph80%29.85 "Hg15 mi
9:54 PM83 °FMostly cloudy.14 mph81%29.85 "Hg15 mi
8:52 PM83 °FOvercast.14 mph80%29.84 "Hg15 mi
7:52 PM83 °FPassing clouds.13 mph80%29.83 "Hg15 mi
Weather by CustomWeather, © 2016

See weather overviewHow to use our weather pages